RH
98 71 62 63 56 49 49 48 48 44 34 29 31 38 47 52 55 58 57 61 59 58 58 62 68 67 63 59 56 55 53 53 57 58 62 63 68 68 65 68 71 71 68
98 74 67 64 63 57 51 53 54 52 48 41 36 39 45 49 54 57 54 57 58 60 59 60 62 64 61 56 53 55 55 56 59 62 64 62 63 68 70 73 74 76 69
100 91 75 69 62 60 59 57 57 57 56 54 49 44 42 46 53 56 60 61 61 63 61 58 56 56 57 57 54 54 54 54 61 66 66 64 64 66 70 72 73 71 65
96 87 79 75 72 64 55 63 60 62 60 58 56 56 54 51 51 54 60 64 65 65 63 60 58 56 54 57 58 54 52 55 60 67 68 70 72 73 76 74 76 77 74
99 95 83 81 89 68 64 69 68 71 66 62 61 61 60 62 61 59 62 64 65 76 72 81 65 59 56 57 58 58 51 54 56 65 68 69 78 71 79 75 74 72 74
90 98 91 86 81 70 73 76 68 68 62 64 64 66 66 66 66 66 66 65 64 65 64 61 60 61 59 57 55 57 55 52 52 60 66 68 72 76 77 77 77 70 72
97 97 89 85 81 76 77 71 63 64 62 61 60 60 64 71 72 72 72 72 72 72 72 70 66 60 58 56 56 56 55 55 54 54 61 65 68 73 80 79 80 76 73
95 98 93 90 84 79 66 53 50 44 38 34 34 35 43 56 67 79 84 84 81 78 79 79 77 73 71 62 59 60 60 57 55 51 54 60 64 68 74 78 78 80 78
97 99 95 84 72 61 53 39 25 16 12 11 11 12 13 14 21 33 51 66 81 86 84 87 86 84 81 79 77 71 68 62 59 56 51 50 56 64 66 75 81 78 83
91 84 77 66 55 42 23 14 11 11 12 12 12 13 13 13 13 13 14 13 13 15 23 42 74 86 89 87 83 83 80 72 67 60 59 52 53 59 66 69 77 73 76
73 55 43 35 26 17 13 12 12 12 13 13 13 13 14 14 14 14 13 14 13 13 14 14 15 17 29 58 77 80 85 90 88 74 68 62 57 56 59 63 72 77 71
48 34 26 21 17 15 14 15 15 15 15 14 15 15 14 14 14 15 14 15 15 16 16 15 14 14 16 17 21 29 48 73 90 88 81 80 75 65 58 61 66 70 73
30 23 19 16 14 15 17 18 17 17 17 17 16 16 15 15 15 16 17 16 17 17 17 18 18 17 15 15 15 16 18 21 35 59 76 84 87 85 74 64 62 68 67
28 26 23 21 22 21 21 20 19 20 19 18 17 16 16 16 17 17 17 20 20 20 20 20 18 18 18 17 16 15 16 17 19 21 27 34 78 87 86 80 68 64 66
37 31 28 25 24 22 21 21 20 20 19 18 18 18 18 18 20 20 21 21 22 21 20 20 20 19 18 18 17 16 16 16 16 17 18 23 34 48 84 85 82 72 68
38 35 32 29 26 24 23 23 23 22 22 22 23 23 23 24 24 24 23 23 23 23 23 22 21 19 20 20 19 17 16 16 16 16 17 17 19 34 39 81 89 84 71
41 38 33 30 28 27 27 26 27 27 28 28 28 28 28 27 26 25 24 22 23 23 24 25 25 25 25 25 25 24 22 18 17 18 18 18 18 19 30 35 68 94 85
42 37 32 30 29 28 29 29 29 29 29 30 30 30 28 24 21 20 21 21 23 26 27 27 28 30 31 32 31 32 30 27 23 20 22 23 22 20 20 25 33 61 98
41 37 35 35 34 33 33 33 32 31 31 31 30 23 18 19 22 24 27 30 32 34 38 40 41 43 44 45 47 42 41 34 33 30 27 27 27 26 23 22 29 31 51
41 38 39 38 36 35 33 33 33 33 32 27 18 16 18 21 24 27 30 34 36 38 42 48 57 64 66 68 67 61 49 50 47 58 50 41 41 38 36 30 28 32 30
43 44 43 41 37 33 32 34 33 29 22 14 11 14 20 25 27 30 33 31 31 36 44 56 65 72 78 86 77 69 57 73 82 86 99 93 89 92 86 79 52 47 45
48 49 45 42 34 29 31 28 25 20 13 8 9 12 16 20 25 29 30 29 27 37 46 55 67 75 78 85 99 96 98 84 97 79 97 96 95 94 92 100 100 100 97
55 49 46 41 30 25 24 19 16 13 9 7 6 8 8 10 12 20 27 25 20 37 50 61 70 79 84 83 90 100 98 99 96 95 80 82 87 86 84 85 91 89 89
54 52 48 42 28 18 16 16 14 10 7 6 6 6 6 6 6 6 13 18 17 43 54 63 74 83 90 92 84 90 100 100 98 98 96 84 85 77 77 77 79 81 81
60 57 55 48 38 24 15 12 9 8 6 5 5 5 5 5 5 4 5 6 10 42 51 58 72 80 88 94 96 95 90 92 100 100 99 87 74 72 72 74 76 73 79
66 64 63 54 42 27 16 9 7 6 6 5 5 5 5 4 4 4 4 4 8 21 27 39 69 79 83 88 93 97 98 99 99 100 99 97 100 71 74 88 98 90 89
Wind_Speed
13 12 11 9 7 7 7 7 5 4 4 4 4 3 4 5 5 4 3 3 3 2 1 1 1 2 3 4 5 5 5 5 5 5 4 3 1 1 1 1 3 5 7
15 14 14 13 12 10 7 5 4 3 3 4 3 4 3 2 3 3 2 2 2 2 3 3 4 5 5 6 5 6 6 5 5 5 4 3 3 1 3 2 3 5 7
15 12 10 6 5 6 5 4 4 3 3 3 3 3 3 4 4 4 4 4 4 5 5 5 6 7 7 7 7 7 6 6 6 6 5 5 5 3 4 3 3 6 7
15 12 10 11 10 9 8 5 5 4 3 4 4 4 4 4 5 6 7 7 7 7 7 8 8 9 9 8 8 9 8 7 7 8 6 6 6 4 5 6 6 6 8
14 15 16 14 9 9 9 8 7 5 5 5 5 5 5 5 6 7 8 9 10 9 10 9 10 10 10 11 10 10 10 9 9 9 8 8 10 8 7 8 8 8 9
14 15 13 12 12 11 10 9 8 7 6 5 5 5 5 7 8 9 10 11 11 12 12 13 12 12 12 11 12 11 12 12 12 12 10 11 12 10 10 10 9 8 10
10 12 14 13 12 11 9 9 7 5 4 3 4 4 5 7 8 10 11 13 13 14 14 15 15 15 15 14 13 13 13 13 15 14 13 13 14 15 13 15 13 10 12
9 10 10 10 10 10 10 8 5 3 2 3 3 4 5 6 7 8 10 12 14 15 16 17 17 18 19 18 17 16 16 16 16 17 17 15 15 16 18 15 16 16 15
10 11 12 11 9 8 7 5 3 2 3 4 5 5 6 7 8 9 11 12 14 15 17 18 18 19 21 22 21 20 20 20 20 20 19 18 16 17 19 19 17 19 20
13 12 11 10 9 7 6 6 6 5 4 4 5 6 7 9 10 11 12 14 15 16 18 19 20 20 20 21 24 25 24 24 23 23 22 21 19 19 20 22 21 21 21
12 11 10 8 6 5 5 6 7 6 6 7 7 8 9 11 13 14 16 17 19 20 21 21 22 23 23 23 23 25 25 26 27 26 26 23 22 22 21 22 24 21 22
11 9 6 4 5 6 7 7 7 7 7 7 8 9 11 13 15 16 18 19 21 22 23 24 26 27 27 28 27 26 27 27 28 28 30 28 25 24 24 23 24 25 24
11 8 7 7 8 8 8 8 7 8 8 9 11 13 15 16 18 19 19 21 22 23 23 24 25 27 29 30 30 30 30 30 30 30 31 29 29 28 27 26 25 25 27
10 7 5 4 5 6 7 8 9 10 11 12 14 17 18 20 22 23 25 24 25 26 26 25 25 27 28 30 32 33 33 33 33 33 32 33 29 30 30 30 29 27 28
9 6 4 4 5 6 8 9 10 11 12 14 16 18 20 21 23 25 26 27 28 28 29 30 30 28 28 29 31 33 34 35 35 35 37 36 35 33 31 32 32 31 30
8 4 2 3 5 7 8 9 10 12 13 15 17 18 19 21 23 24 25 26 27 29 30 31 33 34 34 32 31 32 34 35 36 37 38 39 38 37 36 33 33 33 33
7 1 3 5 5 6 7 9 10 12 13 14 15 17 18 19 20 22 23 24 26 27 28 29 31 31 32 33 33 33 33 34 35 35 37 38 39 40 40 38 35 34 35
4 2 4 5 5 7 8 9 10 11 12 12 13 13 14 15 17 19 21 23 25 27 29 30 30 30 30 31 32 31 32 32 32 33 33 35 36 37 40 40 38 36 35
6 4 4 3 4 4 5 6 6 6 7 8 9 10 13 15 18 20 22 23 24 26 27 27 28 29 30 30 31 31 31 28 26 28 29 29 31 33 35 39 39 37 38
6 5 4 4 4 3 3 4 4 5 6 7 9 11 14 16 18 21 23 25 26 27 29 29 29 27 26 28 31 30 26 21 17 12 14 17 19 23 26 30 36 37 36
9 5 2 2 2 2 2 3 3 3 6 8 10 12 13 15 17 19 22 24 27 30 30 30 30 31 29 27 28 31 18 9 4 7 4 4 3 7 8 12 21 28 34
8 4 1 1 1 1 1 1 1 4 6 8 10 11 12 13 15 17 20 22 26 29 31 30 29 30 27 25 25 22 14 9 5 12 3 4 3 4 5 3 6 9 13
8 5 3 2 2 2 1 0 2 5 7 8 9 10 12 13 14 15 17 19 23 26 29 30 29 27 27 22 18 10 8 7 31 1 7 9 12 10 11 11 13 14 13
9 7 4 5 3 2 1 1 3 4 6 8 9 11 11 12 13 14 15 17 20 22 26 28 29 27 25 24 18 12 10 13 9 13 17 21 17 18 18 14 15 17 17
10 7 7 5 4 2 1 1 3 5 7 9 10 10 11 11 12 13 14 15 17 18 22 25 27 27 25 22 21 19 15 12 4 10 16 25 23 18 12 12 15 18 17
12 9 5 3 1 0 0 1 3 4 5 7 8 9 10 12 13 14 15 16 16 17 19 21 23 25 24 22 21 18 14 10 15 12 18 24 22 17 15 8 11 11 14
Wind_Direction
185 178 163 151 154 165 153 146 144 139 130 125 127 130 135 144 152 153 146 144 149 165 189 224 237 245 271 296 305 308 311 318 321 317 316 327 1 154 127 171 181 174 168
180 177 170 172 165 164 170 147 148 157 150 138 139 143 147 164 184 189 210 228 228 221 235 248 255 259 268 278 287 296 302 306 300 295 291 282 254 184 163 162 186 193 179
184 184 178 151 159 156 149 163 170 190 185 173 176 177 179 192 206 216 225 235 252 260 268 264 265 268 274 277 276 275 279 289 285 277 275 262 250 216 203 201 210 214 208
189 182 172 162 171 183 176 183 187 208 211 216 218 211 210 218 227 229 231 236 245 256 262 267 274 277 274 272 271 270 269 273 274 276 269 256 251 227 225 209 216 244 226
183 185 184 176 170 174 162 187 186 199 212 222 234 242 240 240 241 243 245 244 244 252 259 267 268 270 275 277 276 270 263 264 266 264 257 251 250 254 238 221 234 238 228
194 196 192 174 176 178 169 185 187 195 200 212 224 240 252 257 258 258 259 259 261 263 262 260 258 260 262 265 272 273 268 265 264 263 256 248 247 243 246 242 243 239 233
171 167 176 181 179 179 179 181 183 189 197 217 238 252 262 267 270 273 272 272 271 271 270 269 268 264 259 258 259 263 264 264 266 263 259 254 250 246 249 250 244 247 237
171 170 171 176 182 181 184 185 185 201 241 274 288 290 283 279 277 275 276 277 276 275 276 275 273 270 268 264 260 258 260 259 259 262 261 256 254 252 247 250 249 246 244
180 178 175 177 181 187 195 200 214 249 276 285 295 300 299 295 291 286 283 281 281 281 280 279 277 274 271 268 263 260 257 255 256 256 256 256 253 253 254 251 257 249 247
184 182 182 186 189 194 207 228 242 239 251 271 285 290 293 294 294 296 293 291 289 285 280 279 279 278 274 273 269 266 261 257 256 257 256 255 252 249 248 248 253 258 252
180 181 183 191 200 218 242 253 258 268 277 280 281 286 286 292 295 294 293 291 288 286 283 281 278 276 274 271 272 274 272 265 260 256 257 254 253 253 249 250 249 253 250
182 181 183 203 232 250 259 266 270 277 280 286 291 294 296 297 299 300 298 295 292 288 285 280 277 276 275 274 271 267 267 267 265 262 258 256 253 250 252 249 249 249 249
185 187 199 221 237 248 256 263 269 278 288 295 299 303 305 306 304 304 303 300 297 291 285 282 279 276 274 275 274 271 267 265 266 263 263 260 255 252 250 251 247 246 248
182 189 210 237 259 272 279 283 289 296 301 304 306 309 308 308 309 309 309 309 306 303 298 291 285 282 280 276 273 272 271 268 264 263 262 261 258 252 249 249 249 247 246
182 193 214 255 275 277 279 284 286 290 297 303 306 307 309 309 311 313 313 312 312 309 305 301 297 289 282 278 276 273 271 270 268 265 262 260 261 257 248 245 248 246 245
187 190 222 285 292 287 288 290 295 300 305 310 314 315 316 318 318 318 318 317 316 313 310 306 302 299 295 289 280 275 272 270 269 266 263 260 258 258 258 247 244 246 244
188 218 328 313 300 293 292 295 303 312 318 321 323 327 332 333 331 330 328 327 323 318 314 310 304 300 295 291 289 284 279 275 271 268 266 263 257 254 254 254 247 246 245
190 254 285 281 288 295 298 303 309 316 323 331 338 342 345 347 346 343 340 337 334 329 324 318 313 308 304 300 294 288 286 281 279 273 268 266 263 256 254 254 252 245 247
192 234 265 284 296 291 293 305 317 331 340 349 2 6 5 3 1 359 357 354 348 343 337 331 325 319 316 311 306 300 296 294 285 277 274 270 266 262 255 252 252 250 244
196 228 258 295 307 313 321 333 347 359 13 23 19 17 15 13 13 10 8 6 2 358 352 347 342 335 332 323 315 312 314 309 294 290 278 272 270 264 261 254 252 251 250
196 211 249 311 311 332 337 344 6 29 35 20 16 14 17 18 16 17 17 16 15 11 4 354 348 346 350 340 330 322 332 330 282 19 29 290 282 308 299 268 256 257 253
201 199 232 254 260 349 34 37 44 32 14 8 9 5 8 11 13 15 17 19 17 15 12 4 356 351 357 352 345 347 345 334 284 317 8 298 314 297 300 288 256 247 260
189 201 224 222 190 179 166 110 9 3 3 358 353 354 356 357 359 2 6 10 13 14 16 12 5 358 354 355 358 10 343 324 322 68 322 293 299 287 275 284 267 255 260
199 208 208 203 179 189 213 17 359 351 344 347 354 357 353 351 352 354 357 4 11 16 21 19 13 7 2 355 353 331 308 299 315 315 313 319 321 309 305 295 282 266 264
198 201 203 176 178 171 95 330 334 346 353 5 3 357 353 355 357 1 4 5 11 18 21 22 18 17 12 3 355 346 335 321 338 308 315 313 319 330 335 317 301 272 279
200 204 192 174 127 130 234 318 339 358 14 14 2 1 0 3 5 9 12 10 12 15 16 18 18 18 15 10 360 1 356 347 311 314 308 315 323 353 346 342 319 301 289